Juan Colombo

Recruteur en chef - Deportivo Riestra
13 Févr 2028
Dimanche
Processus

Personnalité

Adaptabilité (9) Ambition (18) Controverse (11) Loyauté (19) Pression (10) Professionnalisme (13) Sportivité (10) Tempérament (16)

Profil

Style d'entraînement Démocratique
Diplôme National B
Détermination 8
Gestion des joueurs 6
Motivation 7
Discipline 8
Satisfaction professionnelle
100%
Fatigue
0%
Rôle Recruteur en chef
Salaire 67.5K p/s
Contrat 14.03.2028

Performance

Comportement Bon
Efficacité de l'entraînement
28%
Développement des joueurs
45%
Prévention des blessures
40%
Mise en place tactique
30%

Événements récents

Négociation de contrat entamée maintenant
A participé à une réunion de recrutement maintenant
Négociation de contrat entamée maintenant
Négociation de contrat entamée maintenant
Négociation de contrat entamée maintenant
Négociation de contrat entamée 7j
Négociation de contrat entamée 7j
Négociation de contrat entamée 7j

Suivi en cours

93
Joueur Club Statut Capacité Confiance Observé Dernière observation Dernier vote
Lucas Barrientos Los Andes Actif 88 / 110 51% 1 01.06.2027 -
Toby Collyer West Bromwich Albion Actif 119 / 130 40% 1 28.11.2026 -
Yhormar Hurtado Lechia Actif 112 / 119 40% 2 27.11.2026 -
Dara O'Shea Ipswich Town Actif 141 / 133 40% 1 27.11.2026 -
Dennis Cirkin Queens Park Rangers Actif 124 / 135 40% 1 24.11.2026 -
Luke McNally Bristol City Actif 115 / 142 40% 2 23.11.2026 -
Nathan Moriah-Welsh Mansfield Town Actif 129 / 99 40% 1 23.11.2026 -
Jimmy Dunne Queens Park Rangers Actif 128 / 118 40% 1 22.11.2026 -
Conrad Wallem Djurgarden Actif 131 / 131 40% 2 21.11.2026 -
Thomas Carrique Andorra Actif 116 / 110 40% 4 19.11.2026 -
Max Johnston Derby County Actif 121 / 125 40% 1 19.11.2026 -
Tariq Lamptey Queens Park Rangers Actif 120 / 138 40% 2 18.11.2026 -
Alfie Doughty Millwall Actif 131 / 130 40% 1 18.11.2026 -
Jacob Greaves Ipswich Town Actif 149 / 138 40% 1 17.11.2026 -
Manu Morlanes Mallorca Actif 121 / 123 40% 5 16.11.2026 -
Chris Mepham West Bromwich Albion Actif 131 / 121 40% 1 15.11.2026 -
Shea Charles Southampton Actif 135 / 145 40% 2 12.11.2026 -
Alfie Jones Middlesbrough Actif 141 / 115 40% 1 11.11.2026 -
Mamadou Sangaré Brentford Actif 157 / 154 40% 1 11.11.2026 -
Jean Pierre Rosso Liverpool Montevideo Actif 112 / 110 40% 2 07.11.2026 -
Joel Bagan Cardiff City Actif 122 / 110 40% 1 07.11.2026 -
Erik de los Santos Racing Actif 121 / 108 40% 1 06.11.2026 -
Gustavo Hamer Sheffield United Actif 137 / 118 40% 2 04.11.2026 -
Ryan Alebiosu Blackburn Rovers Actif 119 / 128 40% 1 04.11.2026 -
Eneko Astigarraga Real Sociedad Actif 87 / 113 40% 1 03.11.2026 -
Nicolás Ramírez Universidad de Chile Actif 110 / 126 40% 2 02.11.2026 -
Habib Diarra Sunderland Actif 139 / 133 40% 1 31.10.2026 -
Daniel González Universidad Catolica Actif 122 / 126 40% 2 30.10.2026 -
Azor Matusiwa Ipswich Town Actif 122 / 150 40% 1 30.10.2026 -
Víctor Felipe Méndez Colo-Colo Actif 107 / 112 40% 2 26.10.2026 -
Aidan Morris Middlesbrough Actif 126 / 143 40% 1 25.10.2026 -
Michael Baidoo Plymouth Argyle Actif 123 / 125 40% 1 21.10.2026 -
Diego Sosa Instituto Actif 105 / 109 40% 1 19.10.2026 -
Claudio Bravo Argentinos Juniors Actif 123 / 120 40% 1 19.10.2026 -
Agustín Maidana San Marcos de Arica Actif 108 / 103 40% 1 14.10.2026 -
Juan Pablo Salomoni Union La Calera Actif 118 / 110 40% 2 12.10.2026 -
Vicente Durán San Luis Actif 111 / 106 40% 1 11.10.2026 -
Nobel Mendy Hull City Actif 116 / 123 40% 1 11.10.2026 -
Sean Zawadzki Columbus Crew Actif 123 / 129 40% 1 10.10.2026 -
Alexis Maldonado Belgrano Actif 115 / 113 40% 1 09.10.2026 -
Aarón Mejía Tijuana Actif 122 / 125 40% 5 08.10.2026 -
Uziel García Morelia Actif 109 / 96 40% 1 06.10.2026 -
Adonis Frías Atlas Actif 130 / 134 40% 2 05.10.2026 -
Jon Ander Olasagasti Levante Actif 139 / 129 40% 1 04.10.2026 -
David Morosini Juventud Actif 109 / 106 40% 2 03.10.2026 -
Nathan Silva Pumas UNAM Actif 129 / 127 40% 2 03.10.2026 -
José Pachuca Puebla Actif 96 / 124 40% 1 02.10.2026 -
Alan Mozo Pachuca Actif 117 / 110 40% 3 01.10.2026 -
Bruno Amione Santos Laguna Actif 132 / 122 40% 2 01.10.2026 -
Keaton Parks New York City Actif 146 / 138 40% 2 30.09.2026 -
Pedro Vite Pumas UNAM Actif 137 / 131 40% 1 29.09.2026 -
Enzo Giménez Queretaro Actif 137 / 116 40% 2 27.09.2026 -
Tobías Bovone Deportivo Pereira Actif 121 / 107 40% 1 25.09.2026 -
Juan Díaz Universidad Catolica Actif 124 / 115 40% 1 23.09.2026 -
Pablo Monroy Pumas UNAM Actif 106 / 126 40% 1 23.09.2026 -
Michael Carcelén Queretaro Actif 119 / 105 40% 2 22.09.2026 -
Santiago Simón Toluca Actif 113 / 116 40% 3 21.09.2026 -
Juan Sierra La Equidad Actif 127 / 121 40% 2 21.09.2026 -
Luís Esteves Atlas Actif 119 / 122 40% 2 20.09.2026 -
Franco Pardo Santos Laguna Actif 120 / 136 40% 1 20.09.2026 -
Alejandro Gómez Tijuana Actif 132 / 127 40% 2 17.09.2026 -
Joaquín Varela Independiente Medellin Actif 110 / 123 40% 2 16.09.2026 -
Ronaldo Pájaro Deportivo Cali Actif 128 / 118 40% 1 14.09.2026 -
Salvador Reyes Leon Actif 115 / 129 40% 1 12.09.2026 -
Milton Valenzuela Atlas Actif 116 / 128 40% 1 12.09.2026 -
Miguel Brizuela O'Higgins Actif 103 / 112 40% 1 10.09.2026 -
Samuel Velásquez Atletico Nacional Actif 118 / 111 40% 1 06.09.2026 -
Diego Barbosa Toluca Actif 134 / 127 40% 1 06.09.2026 -
Tomás Alarcón Colo-Colo Actif 117 / 115 40% 1 05.09.2026 -
Enrique Femia Danubio Actif 102 / 100 40% 1 04.09.2026 -
Alejo Macelli Cerro Actif 99 / 112 40% 1 02.09.2026 -
Álex Vázquez Racing Actif 116 / 107 40% 1 30.08.2026 -
Jean Carlos Pestaña Junior Actif 114 / 123 40% 1 29.08.2026 -
James Herrera La Equidad Actif 127 / 129 40% 1 27.08.2026 -
Jermein Peña Junior Actif 123 / 123 40% 2 25.08.2026 -
José Caldera Deportivo Cali Actif 102 / 110 40% 1 23.08.2026 -
Juan Manuel Zapata Envigado Actif 125 / 122 40% 1 23.08.2026 -
Iván Rojas Aguilas Doradas Actif 121 / 116 40% 1 21.08.2026 -
Alexis Gutiérrez Club America Actif 106 / 130 40% 1 18.08.2026 -
Bruno Méndez Toluca Actif 146 / 129 40% 1 16.08.2026 -
Delvin Alfonzo Deportivo Tachira Actif 105 / 114 40% 1 15.08.2026 -
Yílmar Velásquez Santa Fe Actif 109 / 109 40% 1 13.08.2026 -
Carlos Jimenez Veracruz Actif 112 / 126 40% 1 11.08.2026 -
Blás Riveros Cerro Porteno Actif 124 / 123 40% 1 11.08.2026 -
Yesid Díaz Fortaleza CEIF Actif 127 / 116 40% 1 09.08.2026 -
Fernando Beltrán Leon Actif 121 / 137 40% 1 08.08.2026 -
Edgar Elizalde Defensor Sporting Actif 111 / 109 40% 1 07.08.2026 -
Rômulo Tigres Actif 137 / 119 40% 1 05.08.2026 -
José Alberti Wanderers Actif 133 / 120 40% 1 03.08.2026 -
Jorge Berlanga Pachuca Actif 112 / 116 40% 1 02.08.2026 -
Nicolás Gil Leones Actif 105 / 118 40% 1 02.08.2026 -
Mateo Gamarra Olimpia Actif 108 / 123 40% 1 01.08.2026 -
Roy Revivo Elche Actif 127 / 125 40% 1 01.08.2026 -